Terminal Aerodrome Forecast
Issued by NWS

Home | Current Version | Previous Version | Text Only | Print | Product List | Glossary On
Versions: 1 2 3 4 5 6 7 8 9 10 11 12 13 14 15 16 17 18 19 20 21
000
FTUS41 KGYX 011120
TAFRKD
TAF
KRKD 011120Z 0112/0212 03008KT P6SM OVC007
     FM011400 06009KT P6SM OVC015
     FM020000 05010KT P6SM SCT007 OVC010
      AMD LTD TO CLD VIS AND WIND=

USA.gov is the U.S. government's official web portal to all federal, state and local government web resources and services.